{"data":{"norad_id":62144,"intl_designator":"2024-224F","name":"STARLINK-32388","alt_names":[],"object_type":"PAYLOAD","status":"ACTIVE","operator":null,"country":"US","launch_date":"2024-11-30","launch_site_code":"AFETR","launch_vehicle":null,"mission":null,"orbit_class":"UNKNOWN","rcs_meters":null,"size_class":null,"mass_kg":null,"dimensions":null,"purposes":["comms"],"wikipedia_slug":null,"has_3d_model":false,"image_url":null,"decayed_at":null,"tle_current":{"epoch":"2026-05-25T04:37:09.039936Z","epoch_age_seconds":61709,"freshness":"FRESH","line1":"1 62144U 24224F   26145.19246574  .00016861  00000+0  62058-3 0  9992","line2":"2 62144  43.0014  93.5330 0001473 267.7572  92.3111 15.27593038 84096","mean_motion":15.27593038,"eccentricity":0.0001473,"inclination_deg":43.0014,"raan_deg":93.533,"arg_perigee_deg":267.7572,"mean_anomaly_deg":92.3111,"bstar":0.00062058,"rev_number":8409,"period_min":94.265944147357,"perigee_km":481.9994088936,"apogee_km":484.02070281626,"semimajor_km":6861.1470558549,"source":"CELESTRAK","updated_at":"2026-05-25T13:38:19.569642Z"}}}